Location: *
(42.3442°N, 9.2072°E)
Time: 11:22:10
(UTC+00:00)

Cosmos 1954 Rocket - Pass Details

Date: 09 April 2020
Orbit: 752 x 781 km, 74.1° (Epoch: 03 June)

Event Time Altitude Azimuth Distance (km) Brightness Sun altitude
Rises 19:26:27 0° 196° (SSW) 3,227 7.1 -16.1°
Reaches altitude 10° 19:28:50 10° 196° (SSW) 2,300 6.3 -16.5°
Maximum altitude 19:34:03 84° 108° (ESE) 773 3.9 -17.4°
Drops below altitude 10° 19:39:16 10° 21° (NNE) 2,298 6.6 -18.2°
Sets 19:41:38 0° 21° (NNE) 3,223 7.4 -18.6°
